Everett, WA

10:24 PM PDT on July 20, 2017 (GMT -0700)
Snohomish County

Weather History for KPAE - June, 2013

Change the Weather History Date:

Friday, June 28, 2013

  Actual Average Record
Temperature  
Mean Temperature 70 °F -  
Max Temperature 86 °F 70 °F 86 °F (2013)
Min Temperature 57 °F 52 °F 47 °F (1956)
Cooling Degree Days 6    
Growing Degree Days 20 (Base 50)    
Moisture  
Dew Point 58 °F    
Average Humidity 76    
Maximum Humidity 94    
Minimum Humidity 40    
Precipitation  
Precipitation 0.00 in - - ()
Sea Level Pressure  
Sea Level Pressure 30.14 in    
Wind  
Wind Speed 3 mph (NNW)    
Max Wind Speed 9 mph    
Max Gust Speed -    
Visibility 9 miles    
Events      
Averages and records for this station are not official NWS values.
T = Trace of Precipitation, MM = Missing Value Source: NWS Daily Summary

Daily Weather History Graph

Daily Weather History Graph

Search for Another Location

Airport or City:

Trip Planner

Search our weather history database for the weather conditions in past years. The results will help you decide how hot, cold, wet, or windy it might be!

Date:

Astronomy

Jun. 28, 2013 Rise Set
Actual Time 5:12 AM PDT 9:12 PM PDT
Civil Twilight 4:31 AM PDT 9:53 PM PDT
Nautical Twilight 3:34 AM PDT 10:49 PM PDT
Astronomical Twilight 2:00 AM PDT 12:22 AM PDT
Moon No Moon Rise 11:56 AM PDT (6/28)
Length of Visible Light 17h 21m
Length of Day
15h 59m
Waning Gibbous, 65% of the Moon is Illuminated
Jun 28
Waning Gibbous
Jun 29
Last Quarter
Jul 8
New
Jul 15
First Quarter
Jul 22
Full

Hourly Weather History & Observations

Time (PDT) Temp. Heat Index Dew Point Humidity Pressure Visibility Wind Dir Wind Speed Gust Speed Precip Events Conditions
12:53 AM 63.0 °F - 59.0 °F 87% 30.22 in 10.0 mi WNW 3.5 mph - N/A   Mostly Cloudy
1:53 AM 61.0 °F - 57.9 °F 90% 30.22 in 10.0 mi North 4.6 mph - N/A   Overcast
2:53 AM 60.1 °F - 57.0 °F 90% 30.20 in 10.0 mi Variable 3.5 mph - N/A   Mostly Cloudy
3:53 AM 60.1 °F - 57.0 °F 90% 30.18 in 10.0 mi NNE 3.5 mph - N/A   Scattered Clouds
4:01 AM 59.0 °F - 57.2 °F 94% 30.18 in 10.0 mi NNE 4.6 mph - N/A   Mostly Cloudy
4:10 AM 59.0 °F - 57.2 °F 94% 30.18 in 8.0 mi NNE 3.5 mph - N/A   Mostly Cloudy
4:32 AM 59.0 °F - 57.2 °F 94% 30.18 in 8.0 mi North 3.5 mph - N/A   Scattered Clouds
4:53 AM 57.9 °F - 55.9 °F 93% 30.18 in 5.0 mi Calm Calm - N/A   Clear
5:20 AM 57.2 °F - 55.4 °F 94% 30.18 in 5.0 mi North 3.5 mph - N/A   Partly Cloudy
5:53 AM 59.0 °F - 57.0 °F 93% 30.18 in 6.0 mi Calm Calm - N/A   Clear
6:53 AM 60.1 °F - 57.0 °F 90% 30.17 in 10.0 mi North 4.6 mph - N/A   Clear
7:53 AM 64.0 °F - 57.9 °F 80% 30.16 in 10.0 mi NE 3.5 mph - N/A   Clear
8:53 AM 66.9 °F - 60.1 °F 79% 30.15 in 10.0 mi West 3.5 mph - N/A   Clear
9:53 AM 68.0 °F - 59.0 °F 73% 30.14 in 10.0 mi Calm Calm - N/A   Clear
10:53 AM 70.0 °F - 61.0 °F 73% 30.13 in 10.0 mi Variable 4.6 mph - N/A   Mostly Cloudy
11:53 AM 75.0 °F - 62.1 °F 64% 30.12 in 10.0 mi NW 5.8 mph - N/A   Partly Cloudy
12:53 PM 75.9 °F - 62.1 °F 62% 30.12 in 10.0 mi Variable 4.6 mph - N/A   Clear
1:53 PM 80.1 °F 80.9 °F 60.1 °F 50% 30.10 in 10.0 mi West 3.5 mph - N/A   Clear
2:53 PM 81.0 °F 80.8 °F 55.9 °F 42% 30.09 in 10.0 mi West 4.6 mph - N/A   Clear
3:53 PM 84.9 °F 84.2 °F 57.9 °F 40% 30.08 in 10.0 mi WSW 9.2 mph - N/A   Clear
4:53 PM 82.9 °F 83.2 °F 60.1 °F 46% 30.08 in 10.0 mi Variable 3.5 mph - N/A   Clear
5:53 PM 75.0 °F - 60.1 °F 60% 30.08 in 10.0 mi Variable 4.6 mph - N/A   Clear
6:53 PM 73.0 °F - 60.1 °F 64% 30.08 in 10.0 mi North 5.8 mph - N/A   Clear
7:53 PM 71.1 °F - 59.0 °F 66% 30.09 in 10.0 mi North 3.5 mph - N/A   Partly Cloudy
8:53 PM 68.0 °F - 59.0 °F 73% 30.09 in 10.0 mi Calm Calm - N/A   Partly Cloudy
9:53 PM 64.9 °F - 59.0 °F 81% 30.10 in 10.0 mi North 3.5 mph - N/A   Clear
10:53 PM 64.9 °F - 57.9 °F 78% 30.10 in 10.0 mi Calm Calm - N/A   Clear
11:53 PM 64.0 °F - 57.9 °F 80% 30.10 in 10.0 mi Calm Calm - N/A   Scattered Clouds